This is the latest recevied weather packets stored in our database for station/object DH5DY-6. If no packets are shown the sender has not sent any weather packets the latest 10 day(s).
| Time | Temp. | Humidity | Pressure | Rain* | Wind** | Luminosity | Snow |
|---|---|---|---|---|---|---|---|
| 1788091857 | 21.67° C | 61% | 1011.1 hPa | 0 mm | - | 197 W/m² | - |
| 1788091257 | 21.11° C | 62% | 1011.3 hPa | 0 mm | - | 694 W/m² | - |
| 1788090056 | 21.67° C | 63% | 1011.1 hPa | 0 mm | - | 777 W/m² | - |
| 1788089456 | 21.11° C | 63% | 1011.2 hPa | 0 mm | - | 849 W/m² | - |
| 1788088256 | 20.56° C | 66% | 1011.2 hPa | 0 mm | - | 605 W/m² | - |
| 1788087656 | 20° C | 69% | 1011.2 hPa | 0 mm | - | 526 W/m² | - |
| 1788086456 | 20° C | 68% | 1011.3 hPa | 0 mm | - | 369 W/m² | - |
| 1788085860 | 19.44° C | 70% | 1011.2 hPa | 0 mm | - | 272 W/m² | - |
| 1788084656 | 19.44° C | 69% | 1011.2 hPa | 0 mm | - | 144 W/m² | - |
| 1788084056 | 19.44° C | 69% | 1011.1 hPa | 0 mm | - | 169 W/m² | - |
| 1788082855 | 19.44° C | 71% | 1010.9 hPa | 0 mm | - | 316 W/m² | - |
| 1788082255 | 19.44° C | 72% | 1011 hPa | 0 mm | - | 144 W/m² | - |
| 1788081056 | 18.89° C | 72% | 1010.9 hPa | 0 mm | - | 246 W/m² | - |
| 1788080456 | 18.89° C | 72% | 1010.8 hPa | 0 mm | - | 163 W/m² | - |
| 1788079255 | 19.44° C | 72% | 1010.6 hPa | 0 mm | - | 250 W/m² | - |
| 1788078655 | 18.33° C | 74% | 1010.6 hPa | 0 mm | - | 323 W/m² | - |
| 1788077455 | 18.33° C | 77% | 1010.5 hPa | 0 mm | - | 74 W/m² | - |
| 1788076855 | 17.78° C | 78% | 1010.5 hPa | 0 mm | - | 63 W/m² | - |
| 1788075654 | 17.78° C | 79% | 1010.4 hPa | 0 mm | - | 104 W/m² | - |
| 1788075055 | 17.78° C | 80% | 1010.3 hPa | 0 mm | - | 72 W/m² | - |
| 1788073855 | 17.78° C | 81% | 1010.2 hPa | 0 mm | - | 62 W/m² | - |
| 1788073255 | 17.22° C | 82% | 1010.1 hPa | 0 mm | - | 62 W/m² | - |
| 1788072055 | 17.22° C | 83% | 1009.9 hPa | 0 mm | - | 63 W/m² | - |
| 1788070254 | 16.67° C | 88% | 1009.6 hPa | 0 mm | - | 58 W/m² | - |
| 1788069654 | 16.67° C | 89% | 1009.7 hPa | 0 mm | - | 79 W/m² | - |
* Rain latest hour (hover to see other rain measurements)
** Current wind speed in m/s (hover to see current wind gust speed)